TimeEDT,TemperatureF,Dew PointF,Humidity,Sea Level PressureIn,VisibilityMPH,Wind Direction,Wind SpeedMPH,Gust SpeedMPH,PrecipitationIn,Events,Conditions,WindDirDegrees,DateUTC
12:34 AM,57.2,57.2,100,29.55,9.0,South,4.6,-,0.00,,Overcast,190,2013-04-12 04:34:00
12:52 AM,57.9,57.9,100,29.53,4.0,South,5.8,-,0.02,Rain,Light Rain,190,2013-04-12 04:52:00
1:52 AM,55.9,55.9,100,29.55,3.0,West,20.7,31.1,0.09,Rain,Light Rain,280,2013-04-12 05:52:00
2:08 AM,53.6,53.6,100,29.57,3.0,West,23.0,32.2,0.01,Rain,Light Rain,280,2013-04-12 06:08:00
2:36 AM,53.6,53.6,100,29.57,9.0,West,13.8,-,0.01,Rain,Light Rain,270,2013-04-12 06:36:00
2:52 AM,53.1,53.1,100,29.55,10.0,West,13.8,-,0.01,Rain,Light Rain,280,2013-04-12 06:52:00
3:52 AM,50.0,48.0,93,29.56,10.0,NW,18.4,26.5,0.01,Rain,Light Rain,310,2013-04-12 07:52:00
4:52 AM,46.0,45.0,96,29.62,10.0,WNW,17.3,-,0.00,,Overcast,290,2013-04-12 08:52:00
5:20 AM,46.4,44.6,93,29.64,10.0,West,13.8,-,N/A,,Overcast,280,2013-04-12 09:20:00
5:52 AM,44.1,42.1,93,29.65,10.0,West,18.4,-,N/A,,Overcast,270,2013-04-12 09:52:00
6:22 AM,42.8,41.0,93,29.68,10.0,West,12.7,21.9,0.00,,Overcast,260,2013-04-12 10:22:00
6:39 AM,42.8,39.2,87,29.69,10.0,West,15.0,-,0.00,,Mostly Cloudy,260,2013-04-12 10:39:00
6:52 AM,43.0,39.0,86,29.69,10.0,West,13.8,18.4,0.00,,Mostly Cloudy,260,2013-04-12 10:52:00
7:52 AM,41.0,36.0,82,29.72,10.0,West,11.5,-,N/A,,Overcast,270,2013-04-12 11:52:00
8:52 AM,41.0,35.1,79,29.74,10.0,WSW,13.8,19.6,N/A,,Overcast,250,2013-04-12 12:52:00
9:52 AM,41.0,35.1,79,29.76,10.0,SW,9.2,18.4,N/A,,Overcast,230,2013-04-12 13:52:00
10:52 AM,42.1,30.9,65,29.78,10.0,West,15.0,24.2,N/A,,Mostly Cloudy,260,2013-04-12 14:52:00
11:03 AM,42.8,30.2,61,29.79,10.0,West,16.1,-,N/A,,Mostly Cloudy,260,2013-04-12 15:03:00
11:52 AM,44.1,30.0,58,29.78,10.0,WSW,12.7,23.0,N/A,,Overcast,240,2013-04-12 15:52:00
12:52 PM,48.0,33.1,56,29.78,10.0,WSW,16.1,25.3,N/A,,Mostly Cloudy,250,2013-04-12 16:52:00
1:52 PM,48.0,32.0,54,29.78,10.0,WSW,17.3,24.2,N/A,,Overcast,240,2013-04-12 17:52:00
2:52 PM,48.9,34.0,56,29.78,10.0,WSW,16.1,23.0,N/A,,Overcast,250,2013-04-12 18:52:00
3:52 PM,48.9,33.1,54,29.79,10.0,WSW,11.5,29.9,N/A,,Overcast,240,2013-04-12 19:52:00
4:52 PM,48.0,34.0,58,29.81,10.0,West,15.0,21.9,N/A,,Overcast,260,2013-04-12 20:52:00
5:52 PM,46.9,34.0,61,29.84,10.0,West,13.8,18.4,N/A,,Overcast,260,2013-04-12 21:52:00
6:52 PM,48.0,34.0,58,29.86,10.0,West,13.8,-,N/A,,Overcast,270,2013-04-12 22:52:00
7:52 PM,46.0,34.0,63,29.88,10.0,West,13.8,-,N/A,,Mostly Cloudy,280,2013-04-12 23:52:00
8:52 PM,46.0,32.0,58,29.90,10.0,West,6.9,-,N/A,,Overcast,270,2013-04-13 00:52:00
9:52 PM,42.1,32.0,67,29.92,10.0,WNW,8.1,-,N/A,,Scattered Clouds,290,2013-04-13 01:52:00
10:52 PM,42.1,30.9,65,29.94,10.0,West,4.6,-,N/A,,Partly Cloudy,260,2013-04-13 02:52:00
11:52 PM,42.1,30.0,62,29.93,10.0,Calm,Calm,-,N/A,,Clear,0,2013-04-13 03:52:00